www.pogodaiklimat.ru

Погода и климат >> Архив погоды >> Лаос >> Удомсай


ПОГОДА в Удомсае

  • Прогноз погоды в Удомсае
  • Монитор погоды в Удомсае

АРХИВ ПОГОДЫ в Удомсае

Время (UTC), дата Ветер
(напр.,м/с)
 
Видим.   Явления Облачность Т
(С)
Тd
(С)
f
(%)
Тe
(С)
Тes
(С)
Комфортность P
(гПа)
Po
(гПа)
Тmin
(С)
Tmax
(С)
R
(мм)
R24
(мм)
S
(см)
09 18.05 ЮЗ 2 18 км 5/4 300 м
[Cu hum Ci sp]
+37.0 +16.0 29 +39 +44 очень
душно
995.8 927.7
12 18.05 ЮЗ 1 8000 м мгла {туман} 3/0
[Ci sp]
+33.0 +15.4 35 +35 +35 душно 997.5 928.3 +38.0
00 19.05 ЮВ 1 7000 м дымка ясно +22.5 +19.4 83 +29 +31 очень
душно
1004.7 932.8 +20.0
03 19.05 ЮЗ 3 10 км 3/3 300 м
[Cu hum]
+32.8 +18.6 43 +38 +47 очень
душно
1003.7 934.0
06 19.05 ЮЗ 2 13 км ясно +36.7 +15.3 28 +38 +60 опасность
солнечного
удара
1000.7 932.1
09 19.05 Ю 2 15 км ясно +38.5 +17.8 30 +42 +50 опасность
перегрева
997.9 929.8
12 19.05 ЮЗ 2 9000 м мгла {туман} 3/3 300 м
[Cu hum]
+33.2 +17.7 40 +37 +37 очень
душно
999.8 930.4 +38.9
00 20.05 штиль 0 7000 м дымка ясно +21.0 +18.6 86 +25 +28 комфорт 1007.1 934.4 +18.6
03 20.05 СЗ 1 9000 м мгла {туман} ясно +32.5 +19.3 46 +38 +57 опасность
солнечного
удара
1004.2 934.4
06 20.05 З 3 15 км 5/5 300 м
[Cu med, cong]
+38.0 +15.3 26 +39 +48 очень
душно
1000.8 932.6
09 20.05 СЗ 1 15 км 4/4 300 м
[Cu hum]
+39.5 +12.6 20 +39 +45 очень
жарко
997.5 929.4
12 20.05 ЮВ 1 8000 м мгла {туман} 5/5 300 м
[Cu med, cong Ac cuf]
+33.5 +19.1 43 +39 +39 очень
душно
1003.6 971.4 +40.8
00 21.05 В 1 6000 м дымка ясно +23.0 +20.7 87 +30 +33 очень
душно
1006.4 933.9 +19.5
03 21.05 З 2 10 км мгла {туман} 4/0
[Ci sp]
+31.4 +20.3 52 +38 +53 опасность
солнечного
удара
1004.9 934.8
06 21.05 ЮЗ 3 10 км мгла {туман} 9/5 300 м
[Cu med, cong Ac cuf]
+34.2 +20.2 44 +41 +44 опасность
перегрева
1002.9 933.4
09 21.05 ЮЗ 3 12 км 4/4 300 м
[Cu med, cong]
+36.7 +18.7 35 +41 +45 опасность
перегрева
987.8 929.2
12 21.05 ЮВ 4 9000 м гроза без осадков 9/6 300 м
[Cb cap]
+33.8 +18.9 41 +39 +39 очень
душно
999.3 930.2 +37.6
00 22.05 З 1 7000 м дымка 9/4 300 м
[Cu hum Ac und]
+21.7 +20.6 93 +27 +28 душно 1009.2 931.7 +19.8 6
03 22.05 Ю 1 9000 м дымка {туман} 6/4 300 м
[Cu med, cong Ac und]
+26.5 +20.4 69 +33 +42 очень
душно
1008.1 936.8
06 22.05 Ю 1 10 км 9/6 300 м
[Cu med, cong Ac und]
+30.0 +19.3 53 +36 +41 очень
душно
1005.3 934.9
09 22.05 СЗ 1 10 км 4/4 300 м
[Cu med, cong]
+32.0 +19.0 46 +37 +43 очень
душно
1001.1 931.5
12 22.05 ЮВ 2 8000 м мгла {туман} 4/4 300 м
[Cu med, cong]
+29.5 +18.1 50 +34 +34 очень
душно
1002.3 932.1 +32.5
00 23.05 штиль 0 7000 м дымка 4/0 300 м
[Ac und]
+22.5 +21.0 91 +29 +32 очень
душно
1007.8 935.5 +20.0
03 23.05 ЮЗ 3 17 км 5/5 300 м
[Cu med, cong]
+29.0 +20.6 61 +36 +43 очень
душно
1006.8 936.1
06 23.05 ЮЗ 2 17 км 8/4 300 м
[Cu Sc]
+32.5 +20.2 48 +39 +47 очень
душно
1004.1 934.3
09 23.05 Ю 4 15 км 8/8 300 м
[Cu med, cong]
+33.0 +19.4 45 +39 +40 очень
душно
1000.3 930.9
12 23.05 ЮЗ 2 10 км 9/4 300 м
[Cu med, cong Ac lent]
+31.3 +20.4 52 +38 +38 очень
душно
1001.1 931.4 +34.7
00 24.05 штиль 0 7000 м дымка 9/4 300 м
[Cu hum Ac lent]
+23.5 +21.1 86 +30 +30 очень
душно
1006.9 934.9 +21.0
03 24.05 Ю 2 10 км 8/6 300 м
[Cu med, cong]
+29.5 +21.3 61 +37 +42 очень
душно
1006.1 935.5
09 24.05 СЗ 2 15 км 5/5 300 м
[Cu med, cong]
+35.5 +16.9 33 +38 +42 очень
душно
992.0 929.9
00 25.05 Ю 1 9000 м дымка 5/3 300 м
[Cu hum Ac und]
+22.0 +20.4 91 +28 +29 душно 1004.9 932.9 +20.0 2
03 25.05 ЮЗ 3 17 км 5/5 300 м
[Cu hum]
+28.8 +21.2 64 +36 +43 очень
душно
1004.0 933.3

 

Местоположение метеостанции Удомсай (Лаос): широта 20.68 долгота 101.99 высота над уровнем моря 550 м.

В архиве по умолчанию представлена погода в Удомсае за последнюю неделю. Архивные данные за месяц целиком и за предыдущие месяцы, начиная с января 2011 года, Вы можете получить, выбрав интересующий диапазон дат из раскрывающегося списка и нажав кнопку "Ввод!".


*Определитесь, кто Вы:
робот инопланетянин человек

Внимание! Время в таблицах - всемирное. Для получения местного времени необходимо прибавить поправку, которая равна 7 ч.

Смотрите также архив погоды в соседних городах и на ближайших метеорологических станциях:

Погода в Луангнамтха (Лаос) (68 км)
Погода в Луанг-Прабанге (Лаос) (89 км)
Погода в Менгла (Юньнань, Китай) (101 км)
Погода в Боуннеуа (Лаос) (108 км)
Погода в Сайнябули (Лаос) (162 км)
Погода в Плейн оф Джарс (Лаос) (180 км)
Погода в Тун Чанг (Таиланд) (182 км)
Погода в Цзинхуне (Юньнань, Китай) (193 км)
Погода в Шонле (Вьетнам) (211 км)
Погода в Та Ванг Па (Таиланд) (214 км)

Пояснения к столбцам:

Ветер - указаны скорость ветра в м/с - средняя за 10 мин, порывы в срок и между сроками (в фигурных скобках) и направление, откуда дует ветер: С - северный, СВ - северо-восточный, В - восточный, ЮВ - юго-восточный, Ю - южный, ЮЗ - юго-западный, З - западный, СЗ - северо-западный.
Видимость - горизонтальная дальность видимости в метрах или километрах. При видимости от 1 до 10 км при отсутствии осадков обычно наблюдается дымка, при ухудшении видимости до 1 км и менее - туман. В сухую погоду видимость может ухудшаться дымом, пылью или мглою.
Явления - указаны атмосферные явления, наблюдавшиеся в срок или в последний час перед сроком; фигурными скобками обозначены явления, наблюдавшиеся между сроками (за 1-3 часа до срока); квадратными скобками обозначены град или гололедные отложения с указанием их диаметра в мм.
Облачность - указаны через наклонную черту общая и нижняя облачность в баллах и высота нижней границы облаков в метрах; квадратными скобками обозначены формы облаков: Ci - перистые, Cs - перисто-слоистые, Cc - перисто-кучевые, Ac - высококучевые, As - высокослоистые, Sc - слоисто-кучевые, Ns - слоисто-дождевые, Cu - кучевые, Cb - кучево-дождевые. Подробнее классификацию облаков см. в Атласе облаков (PDF).
T - Температура воздуха - температура, измеренная на высоте 2 м над землей.
Td - Температура точки росы - температура, при понижении до которой содержащийся в воздухе водяной пар достигнет насыщения.
f - Относительная влажность воздуха - влажноcть воздуха, измеренная на высоте 2 м над землей.
Te - Эффективная температура - температура, которую ощущает одетый по сезону человек в тени. Характеристика душности погоды. При расчете учитывается влияние влажности воздуха и скорости ветра на теплоощущения человека.
Tes - Эффективная температура на солнце - температура, которую ощущает человек, с поправкой на солнечный нагрев. Характеристика знойности погоды. Зависит от высоты солнца над горизонтом, облачности и скорости ветра. Ночью, в пасмурную погоду, а также при ветре 12 м/с и более поправка равна нулю.
P - Атмосферное давление - приведенное к уровню моря атмосферное давление.
Po - Атмосферное давление - измеренное на уровне метеостанции атмосферное давление.
Tmin - Минимальная температура - минимум температуры воздуха на высоте 2 м над землей.
Tmax - Максимальная температура - максимум температуры воздуха на высоте 2 м над землей.
R - Количество осадков - Количество выпавших осадков за период времени, мм. При наведении курсора мыши на число - период времени, за который выпало указанное количество осадков.
R24 - Количество осадков - Количество выпавших осадков за 24 часа, мм.
S - Снежный покров - Высота снежного покрова, см. При наведении курсора мыши на число - состояние снежного покрова и степень покрытия местности в баллах.